APRIZESAT 10

Satellite information

Favourite Embed

Satellite Type and Status

PAYLOADIN ORBIT

Key statistics

Satellite APRIZESAT 10 at a glance.

Uptime

4099

Days in orbit

Revolutions

≈ 14.7

Per day

Orbit

SSO

Sun Synchronous Orbit

Inclination

97.9

Latest

Satellite identification and parameters

Extended collection of information and parameters for APRIZESAT 10.

Object identification

Identified? True

Debris? False

Object name: APRIZESAT 10

International designator: 2014-033K

Object number (NORAD): 40019

Object ID (CCSDS): 40019

Country: UNITED STATES OF AMERICA (US)

Current information (Y/N): Y

RCS size: MEDIUM

Orbital parameters

Period: 97.935 minutes

Inclination: 97.929 deg

SMA: 7038.051 km

Apoapsis: 716.821 km

Periapsis: 603.012 km

RAAN: 19.8973 deg

Eccentricy: 0.00808521

Argument of periapsis: 95.2187 deg

Mean anomaly: 265.8252 deg

Mean motion: 14.70361428 rev/day

Mean motion (dot): 0.00000968 rev/day2

B* drag term: 0.00016033827 1/REarth

Two-line elements (TLE)

Creation date: Sept. 8, 2025, 3:16 a.m.

Reference frame: TEME

Reference center: EARTH

Epoch: Sept. 7, 2025, 9:45 p.m. UTC

TLE line 0: 0 APRIZESAT 10

TLE line 1: 1 40019U 14033K 25250.90640424 .00000968 00000-0 16034-3 0 9998

TLE line 2: 2 40019 97.9290 19.8973 0080852 95.2187 265.8252 14.70361428600769

Live tracking on map

Real-time ground track for satellite APRIZESAT 10.

In-orbit conjunctions

There are no conjunctions computed for APRIZESAT 10, at the moment. Check back to stay up to date, as we update our databases every day.

Go to all conjunctions

Associated space launch

APRIZESAT 10 was lifted into orbit during the mission ‘Dnepr 1 | Multipayload, 37 satellites.’, on board a Dnepr space rocket.

The launch took place on June 19, 2014, 7:11 p.m. from 370/13.

For more information about the launch, click the button.

Launch to space Dnepr 1 | Multipayload, 37 satellites.
Dnepr 1 | Multipayload, 37 satellites.

Agency: N/A

Status: Launch Successful

Launch date: June 19, 2014, 7:11 p.m. UTC

Rocket: Dnepr

Launch pad: 370/13

Location: Dombarovskiy, Russian Federation

...

Latest news about this satellite

There are no fresh news available about this satellite. Check back as we update our databases every day.


Newsletter sign-up

Weekly statistics, charts and insights to help you stay on top of the space industry.